User: anonymous   Login
Location: Le Rocchette
(44.3500°N, 7.8333°E)
Time: 22:34:31
(UTC+00:00)
Language:

STARLINK-80 - Orbit

View from above orbital plane
View from above orbital plane
View from above satellite
View from above satellite

Ground track
Ground track

The orbit data is extracted from the following two-line orbital elements,

1 44282U 19029AZ  20027.51044153  .00002548  00000-0  11721-3 0  9999
2 44282  53.0190 109.2557 0005518 147.1605 212.9735 15.24106384 37959
Epoch (UTC): 27 January 2020 12:15:02
Eccentricity: 0.0005518
inclination: 53.0190°
perigee height: 489 km
apogee height: 497 km
right ascension of ascending node: 109.2557°
argument of perigee: 147.1605°
revolutions per day: 15.24106384
mean anomaly at epoch: 212.9735°
orbit number at epoch: 3795

The dashed part of the orbit path shows where the satellite is in the earth's shadow,  

DLR